When you browse on this site, cookies collect data to enhance your experience and personalize the content and advertising you see.
Visit our Privacy Policy to learn more. By continuing to use the site, you agree to this use of cookies and data.
  • In United Kingdom
  • List of Countries
  • For 7 days
  • Water Temperature
  • Satellite Maps
  • Weather Map
  • Weather Widgets
  • user-avatar
    Login

    Hourly Weather Gjirokaster

    Today, 20 February, Wednesday

    Time Temperature Precipitation Wind Pressure Humidity
    00:00 +1°C° 0 mm 0 mps 652 mmHg 90%
    01:00 +1°C° 0 mm 0 mps 652 mmHg 91%
    02:00 0°C° 0 mm 0 mps 652 mmHg 91%
    03:00 0°C° 0 mm 0 mps 652 mmHg 91%
    04:00 0°C° 0 mm 0 mps 652 mmHg 91%
    05:00 0°C° 0 mm 0 mps 652 mmHg 91%
    06:00 +1°C° 0 mm 1 mps 652 mmHg 90%
    07:00 +1°C° 0 mm 1 mps 652 mmHg 90%
    08:00 +2°C° 0 mm 1 mps 652 mmHg 82%
    09:00 +4°C° 0 mm 1 mps 653 mmHg 73%
    10:00 +6°C° 0 mm 1 mps 654 mmHg 65%
    11:00 +6°C° 0 mm 2 mps 654 mmHg 60%
    12:00 +6°C° 0 mm 2 mps 654 mmHg 56%
    13:00 +7°C° 0 mm 2 mps 654 mmHg 51%
    14:00 +7°C° 0 mm 2 mps 654 mmHg 53%
    15:00 +7°C° 0 mm 2 mps 654 mmHg 55%
    16:00 +7°C° 0 mm 2 mps 653 mmHg 57%
    17:00 +5°C° 0 mm 2 mps 653 mmHg 64%
    18:00 +4°C° 0 mm 2 mps 653 mmHg 71%
    19:00 +2°C° 0 mm 2 mps 653 mmHg 78%
    20:00 +2°C° 0 mm 2 mps 653 mmHg 79%
    21:00 +2°C° 0 mm 2 mps 653 mmHg 80%
    22:00 +2°C° 0 mm 1 mps 653 mmHg 81%
    23:00 +2°C° 0 mm 1 mps 653 mmHg 81%

    Tomorrow, 21 February, Thursday

    Time Temperature Precipitation Wind Pressure Humidity
    00:00 +2°C° 0 mm 1 mps 653 mmHg 80%
    01:00 +1°C° 0 mm 2 mps 653 mmHg 80%
    02:00 -1°C° 0 mm 2 mps 653 mmHg 78%
    03:00 -1°C° 0 mm 2 mps 653 mmHg 77%
    04:00 -1°C° 0 mm 2 mps 653 mmHg 76%
    05:00 -1°C° 0 mm 2 mps 653 mmHg 74%
    06:00 -1°C° 0 mm 2 mps 653 mmHg 73%
    07:00 -1°C° 0 mm 2 mps 654 mmHg 72%
    08:00 +3°C° 0 mm 1 mps 654 mmHg 65%
    09:00 +5°C° 0 mm 1 mps 655 mmHg 57%
    10:00 +7°C° 0 mm 1 mps 656 mmHg 50%
    11:00 +8°C° 0 mm 1 mps 656 mmHg 47%
    12:00 +9°C° 0 mm 1 mps 656 mmHg 44%
    13:00 +10°C° 0 mm 1 mps 656 mmHg 41%
    14:00 +9°C° 0 mm 2 mps 656 mmHg 45%
    15:00 +8°C° 0 mm 2 mps 656 mmHg 49%
    16:00 +8°C° 0 mm 2 mps 656 mmHg 53%
    17:00 +6°C° 0 mm 2 mps 656 mmHg 61%
    18:00 +5°C° 0 mm 2 mps 655 mmHg 68%
    19:00 +3°C° 0 mm 2 mps 655 mmHg 75%
    20:00 +3°C° 0 mm 2 mps 655 mmHg 75%
    21:00 +3°C° 0 mm 2 mps 655 mmHg 75%
    22:00 +2°C° 0 mm 2 mps 655 mmHg 76%
    23:00 +3°C° 0 mm 1 mps 655 mmHg 76%

    Day after tomorrow, 22 February, Friday

    Time Temperature Precipitation Wind Pressure Humidity
    00:00 +3°C° 0 mm 1 mps 655 mmHg 75%
    01:00 +2°C° 0 mm 1 mps 654 mmHg 75%
    02:00 +2°C° 0 mm 1 mps 654 mmHg 76%
    03:00 +1°C° 0 mm 2 mps 654 mmHg 76%
    04:00 +1°C° 0 mm 2 mps 653 mmHg 77%
    05:00 -1°C° 0 mm 2 mps 653 mmHg 77%
    06:00 -1°C° 0 mm 2 mps 653 mmHg 77%
    07:00 -1°C° 0 mm 2 mps 653 mmHg 76%
    08:00 +2°C° 0 mm 2 mps 653 mmHg 72%
    09:00 +3°C° 0 mm 3 mps 654 mmHg 68%
    10:00 +4°C° 0 mm 3 mps 654 mmHg 64%
    11:00 +5°C° 0 mm 4 mps 654 mmHg 63%
    12:00 +5°C° 0 mm 4 mps 653 mmHg 63%
    13:00 +6°C° 0 mm 5 mps 653 mmHg 62%
    14:00 +6°C° 0 mm 5 mps 652 mmHg 63%
    15:00 +5°C° 0 mm 5 mps 652 mmHg 64%
    16:00 +5°C° 0 mm 5 mps 651 mmHg 64%
    17:00 +3°C° 0 mm 4 mps 650 mmHg 69%
    18:00 +1°C° 0 mm 4 mps 650 mmHg 74%
    19:00 +1°C° 0 mm 3 mps 650 mmHg 79%
    20:00 0°C° 0 mm 3 mps 649 mmHg 79%
    21:00 0°C° 0 mm 3 mps 649 mmHg 80%
    22:00 +1°C° 0 mm 2 mps 649 mmHg 81%
    23:00 +1°C° 0 mm 2 mps 648 mmHg 80%

    23 February, Saturday

    Time Temperature Precipitation Wind Pressure Humidity
    00:00 0°C° 0 mm 3 mps 648 mmHg 79%
    01:00 0°C° 0 mm 3 mps 648 mmHg 77%
    02:00 -1°C° 0 mm 3 mps 648 mmHg 78%
    03:00 -1°C° 0 mm 3 mps 647 mmHg 80%
    04:00 -1°C° 0 mm 3 mps 647 mmHg 81%
    05:00 -2°C° 0 mm 3 mps 647 mmHg 79%
    06:00 -2°C° 0 mm 3 mps 647 mmHg 78%
    07:00 -2°C° 0 mm 3 mps 648 mmHg 77%
    08:00 -1°C° 0 mm 3 mps 648 mmHg 66%
    09:00 0°C° 0 mm 3 mps 648 mmHg 55%
    10:00 0°C° 0 mm 4 mps 649 mmHg 44%
    11:00 0°C° 0 mm 4 mps 649 mmHg 43%
    12:00 -1°C° 0 mm 4 mps 649 mmHg 42%
    13:00 -1°C° 0 mm 4 mps 649 mmHg 42%
    14:00 -2°C° 0 mm 5 mps 648 mmHg 43%
    15:00 -4°C° 0 mm 5 mps 648 mmHg 44%
    16:00 -5°C° 0 mm 5 mps 648 mmHg 45%
    17:00 -7°C° 0 mm 5 mps 648 mmHg 44%
    18:00 -8°C° 0 mm 5 mps 648 mmHg 44%
    19:00 -9°C° 0 mm 4 mps 649 mmHg 44%
    20:00 -9°C° 0 mm 4 mps 649 mmHg 42%
    21:00 -9°C° 0 mm 4 mps 649 mmHg 41%
    22:00 -10°C° 0 mm 4 mps 649 mmHg 39%
    23:00 -10°C° 0 mm 4 mps 649 mmHg 39%

    24 February, Sunday

    Time Temperature Precipitation Wind Pressure Humidity
    00:00 -10°C° 0 mm 4 mps 649 mmHg 38%
    01:00 -11°C° 0 mm 4 mps 649 mmHg 38%
    02:00 -11°C° 0 mm 4 mps 649 mmHg 38%
    03:00 -11°C° 0 mm 4 mps 649 mmHg 38%
    04:00 -11°C° 0 mm 4 mps 649 mmHg 39%
    05:00 -11°C° 0 mm 4 mps 649 mmHg 38%
    06:00 -11°C° 0 mm 4 mps 649 mmHg 38%
    07:00 -11°C° 0 mm 4 mps 650 mmHg 38%
    08:00 -10°C° 0 mm 4 mps 650 mmHg 34%
    09:00 -9°C° 0 mm 4 mps 651 mmHg 30%
    10:00 -7°C° 0 mm 4 mps 651 mmHg 25%
    11:00 -5°C° 0 mm 3 mps 651 mmHg 24%
    12:00 -5°C° 0 mm 3 mps 651 mmHg 24%
    13:00 -4°C° 0 mm 3 mps 651 mmHg 23%
    14:00 -4°C° 0 mm 3 mps 651 mmHg 24%
    15:00 -4°C° 0 mm 3 mps 651 mmHg 26%
    16:00 -4°C° 0 mm 3 mps 651 mmHg 28%
    17:00 -5°C° 0 mm 3 mps 651 mmHg 33%
    18:00 -7°C° 0 mm 3 mps 651 mmHg 38%
    19:00 -8°C° 0 mm 3 mps 651 mmHg 43%
    20:00 -8°C° 0 mm 3 mps 651 mmHg 45%
    21:00 -8°C° 0 mm 2 mps 651 mmHg 46%
    22:00 -8°C° 0 mm 2 mps 651 mmHg 47%
    23:00 -8°C° 0 mm 2 mps 651 mmHg 47%

    25 February, Monday

    Time Temperature Precipitation Wind Pressure Humidity
    00:00 -8°C° 0 mm 2 mps 650 mmHg 46%
    01:00 -8°C° 0 mm 2 mps 650 mmHg 45%
    02:00 -8°C° 0 mm 2 mps 650 mmHg 43%
    03:00 -8°C° 0 mm 2 mps 650 mmHg 42%
    04:00 -8°C° 0 mm 2 mps 650 mmHg 40%
    05:00 -8°C° 0 mm 2 mps 650 mmHg 39%
    06:00 -9°C° 0 mm 3 mps 650 mmHg 37%
    07:00 -9°C° 0 mm 3 mps 650 mmHg 36%
    08:00 -7°C° 0 mm 3 mps 650 mmHg 31%
    09:00 -4°C° 0 mm 2 mps 651 mmHg 26%
    10:00 -3°C° 0 mm 2 mps 651 mmHg 21%
    11:00 -2°C° 0 mm 2 mps 651 mmHg 21%
    12:00 -1°C° 0 mm 2 mps 651 mmHg 21%
    13:00 +1°C° 0 mm 2 mps 651 mmHg 21%
    14:00 +1°C° 0 mm 2 mps 650 mmHg 25%
    15:00 -1°C° 0 mm 3 mps 650 mmHg 29%
    16:00 -1°C° 0 mm 3 mps 650 mmHg 33%
    17:00 -4°C° 0 mm 3 mps 650 mmHg 38%
    18:00 -5°C° 0 mm 3 mps 650 mmHg 44%
    19:00 -7°C° 0 mm 3 mps 649 mmHg 50%
    20:00 -6°C° 0 mm 2 mps 649 mmHg 52%
    21:00 -7°C° 0 mm 2 mps 649 mmHg 54%
    22:00 -7°C° 0 mm 2 mps 649 mmHg 56%
    23:00 -7°C° 0 mm 2 mps 649 mmHg 57%
    Show more